Location: Unspecified
(36.3058°N, 0.0000°E)
Time: 23:52:24
(UTC+00:00)

CZ-6A DEB - Visible Passes

Search period start: 04 April 2026 00:00
Search period end: 14 April 2026 00:00
Orbit: 771 x 831 km, 98.7° (Epoch: 29 March)

Date Brightness Start Highest point End Pass type
(mag) Time Alt. Az. Time Alt. Az. Time Alt. Az.
4 Apr ? 19:41:41 10° SSW 19:46:07 26° W 19:50:33 10° NW visible
5 Apr ? 19:14:34 10° S 19:19:43 45° W 19:24:54 10° NNW visible
6 Apr ? 18:48:01 10° SSE 18:53:26 82° WSW 18:58:51 10° NNW visible
7 Apr ? 20:03:57 10° SW 20:07:12 16° W 20:10:27 10° NW visible
8 Apr ? 19:36:07 10° SSW 19:40:45 29° W 19:45:23 10° NW visible
9 Apr ? 19:09:07 10° S 19:14:22 51° W 19:19:37 10° NNW visible
11 Apr ? 19:58:10 10° SW 20:01:48 18° W 20:05:25 10° NW visible
12 Apr ? 19:30:33 10° SSW 19:35:21 32° W 19:40:08 10° NW visible
13 Apr ? 19:03:41 10° S 19:08:59 58° WSW 19:14:17 10° NNW visible
